[[{"header":{"parameterUnit":"m.s-1","parameterCategory":1,"la1":30.2991,"la2":30.254,"lo1":-89.0895,"lo2":-89.0444,"dy":0.0017,"dx":0.0017,"nx":28,"ny":28,"refTime":"2026-03-04T09:00:00:Z","depth":0,"parameterNumber":2,"parameterNumberName":"U-component_of_WINDS"},"data":[0,0,0,0,0,0,0,0,0,0,0,0,0,0,0,0,0,0,0,0,0,0,0,0,0,0,0,0,0,0,0,0,0,0,0,0,0,0,0,0,0,0,0,0,0,0,0,0,0,0,0,0,0,0,0,0,0,0,-4.3132,-4.3132,0,-4.3126,-4.3126,-4.3126,-4.3029,-4.3026,-4.3024,-4.3021,-4.3015,-4.3017,-4.3019,0,0,0,0,0,0,0,0,0,0,0,0,0,-4.306,-4.3062,-4.3132,-4.3132,-4.3131,-4.3126,-4.3126,-4.3126,-4.3029,-4.3026,-4.3023,-4.302,-4.3014,-4.3016,-4.3019,0,0,0,0,0,0,0,0,0,0,0,0,0,-4.3076,-4.3062,-4.3132,-4.3083,-4.3078,-4.3126,-4.3126,-4.3126,-4.303,-4.3026,-4.3022,-4.3019,-4.3013,-4.3016,-4.3019,-4.3113,0,0,-4.3029,-4.303,0,0,0,0,0,0,0,0,-4.3076,-4.3079,-4.309,-4.3086,-4.3081,-4.3074,-4.3098,-4.3121,-4.3031,-4.3048,-4.3021,-4.3017,-4.3037,-4.3038,-4.3045,-4.3113,-4.3113,-4.3029,-4.3031,-4.3033,-4.3034,0,0,0,0,0,0,0,-4.3075,-4.3079,-4.3129,-4.309,-4.3085,-4.3061,-4.3059,-4.3102,-4.3064,-4.3046,-4.3039,-4.304,-4.3034,-4.3043,-4.3044,-4.3113,-4.3029,-4.3032,-4.3034,-4.3035,-4.3258,-4.3262,0,0,0,0,0,0,-4.308,-4.3079,-4.3129,-4.3129,-4.3069,-4.3066,-4.3064,-4.308,-4.3063,-4.3057,-4.3043,-4.3035,-4.3039,-4.3041,-4.3044,-4.3152,-4.3033,-4.3036,-4.3037,-4.3254,-4.3259,-4.3263,0,0,0,0,0,0,-4.3079,-4.3086,-4.313,-4.3102,-4.3106,-4.3071,-4.309,-4.3082,-4.309,-4.306,-4.3053,-4.3058,-4.3036,-4.3039,-4.3097,-4.3151,-4.3037,-4.304,-4.325,-4.3256,-4.3261,-4.3371,0,0,0,0,0,0,-4.3077,-4.3086,-4.3121,-4.3103,-4.3108,-4.3183,-4.3093,-4.3085,-4.3096,-4.3086,-4.3073,-4.3067,-4.3033,-4.3093,-4.31,-4.3153,-4.3042,-4.3244,-4.3252,-4.3259,-4.3362,-4.338,-4.3395,0,0,0,0,0,-4.3075,-4.3151,-4.3123,-4.3129,-4.315,-4.3186,-4.3188,-4.3148,-4.3101,-4.3135,-4.3117,-4.3068,-4.3145,-4.31,-4.3107,-4.3162,-4.3241,-4.325,-4.3259,-4.3355,-4.3376,-4.3394,0,0,0,0,0,0,-4.3174,-4.3148,-4.3116,-4.3189,-4.3191,-4.3169,-4.3212,-4.3172,-4.3187,-4.3177,-4.3126,-4.3124,-4.319,-4.3182,-4.3132,-4.3253,-4.3184,-4.3195,-4.3254,-4.3275,-4.3291,-4.329,-4.3045,0,0,0,0,0,-4.3205,-4.3236,-4.3211,-4.3278,-4.3281,-4.3247,-4.3261,-4.323,-4.3229,-4.3229,-4.3215,-4.3216,-4.3241,-4.3258,-4.3279,-4.3362,-4.3357,-4.3403,-4.342,-4.3433,-4.3442,-4.3486,-4.3506,-4.3293,-4.3293,-4.3293,0,0,-4.3267,-4.3257,-4.3279,-4.3298,-4.3295,-4.3329,-4.3248,-4.3286,-4.331,-4.3235,-4.3288,-4.3279,-4.3277,-4.3348,-4.3378,-4.3343,-4.3501,-4.3445,-4.3456,-4.3457,-4.3497,-4.3518,-4.3536,-4.3299,-4.3298,-4.3297,0,0,-4.3398,-4.3394,-4.3449,-4.3449,-4.3447,-4.3425,-4.3439,-4.3425,-4.3415,-4.3468,-4.3413,-4.3442,-4.3485,-4.3486,-4.3493,-4.3629,-4.3584,-4.3638,-4.3722,-4.3765,-4.3782,-4.3796,-4.3844,-4.3861,-4.3648,-4.3648,-4.3648,0,-4.3475,-4.3523,-4.3482,-4.3525,-4.3535,-4.347,-4.3526,-4.3528,-4.3533,-4.3542,-4.3503,-4.3557,-4.3552,-4.3622,-4.3656,-4.3664,-4.3677,-4.3637,-4.3783,-4.3797,-4.381,-4.3855,-4.3873,-4.3654,-4.3653,-4.3653,-4.3652,0,-4.3619,-4.3654,-4.3699,-4.3706,-4.3722,-4.3771,-4.3737,-4.3758,-4.3728,-4.371,-4.3766,-4.3758,-4.3776,-4.3791,-4.3761,-4.3858,-4.3836,-4.3792,-4.3721,-4.3837,-4.3878,-4.3895,-4.3663,-4.3661,-4.3659,-4.3658,0,0,-4.3807,-4.3794,-4.3811,-4.3814,-4.381,-4.3835,-4.3883,-4.3902,-4.3921,-4.3928,-4.3966,-4.4006,-4.3965,-4.3973,-4.3943,-4.3981,-4.4089,-4.3931,-4.3931,-4.396,-4.4195,-4.4227,-4.4247,-4.4061,-4.4064,-4.4067,-4.4195,0,-4.3932,-4.4011,-4.3977,-4.4059,-4.4091,-4.4033,-4.4074,-4.4076,-4.4062,-4.4087,-4.4072,-4.41,-4.4045,-4.4049,-4.4085,-4.4068,-4.4135,-4.4059,-4.4095,-4.4097,-4.4094,-4.4269,-4.4302,-4.4423,-4.421,-4.4213,-4.4215,0,-4.4086,-4.4101,-4.4188,-4.4179,-4.4191,-4.4229,-4.4244,-4.427,-4.4272,-4.4259,-4.427,-4.4232,-4.4279,-4.4212,-4.4275,-4.4224,-4.4238,-4.4233,-4.4236,-4.4235,-4.4161,-4.4271,-4.4461,-4.4478,-4.424,-4.4238,-4.4236,0,-4.4213,-4.4255,-4.4312,-4.4317,-4.4309,-4.4337,-4.4335,-4.4334,-4.4348,-4.4363,-4.4371,-4.4391,-4.4402,-4.4418,-4.4387,-4.4342,-4.4455,-4.4385,-4.4444,-4.4445,-4.4468,-4.4466,-4.466,-4.4482,-4.4481,-4.4481,-4.4481,0,-4.4354,-4.4408,-4.4369,-4.4404,-4.4464,-4.4426,-4.4486,-4.4478,-4.4478,-4.4511,-4.4463,-4.4494,-4.4453,-4.4481,-4.4458,-4.4513,-4.4519,-4.4509,-4.4502,-4.4512,-4.4513,-4.4517,-4.4507,-4.4486,-4.4485,-4.4484,-4.4483,0,-4.4503,-4.4479,-4.4537,-4.4527,-4.4525,-4.457,-4.4561,-4.4593,-4.4577,-4.4619,-4.4627,-4.4602,-4.4633,-4.4605,-4.4634,-4.4618,-4.4692,-4.4674,-4.4691,-4.4685,-4.4745,-4.4739,-4.4946,-4.4971,-4.4779,-4.4781,-4.4783,0,-4.4593,-4.4634,-4.4629,-4.4647,-4.4649,-4.468,-4.4695,-4.466,-4.4678,-4.4686,-4.4717,-4.4744,-4.4763,-4.4815,-4.48,-4.4822,-4.4803,-4.4874,-4.4805,-4.4815,-4.4801,-4.4798,-4.4802,-4.4887,-4.4889,-4.4891,-4.4892,0,-4.4755,-4.4742,-4.4765,-4.4786,-4.4806,-4.4821,-4.4831,-4.485,-4.4815,-4.4837,-4.4869,-4.4884,-4.4915,-4.4942,-4.4961,-4.4959,-4.492,-4.4915,-4.4929,-4.4938,-4.4946,-4.4941,-4.4726,-4.4909,-4.4907,-4.4906,-4.4905,-4.4905,-4.4875,-4.4909,-4.4911,-4.494,-4.4946,-4.4957,-4.4987,-4.4977,-4.5003,-4.5025,-4.5004,-4.5042,-4.5046,-4.5066,-4.507,-4.5099,-4.5069,-4.509,-4.5095,-4.51,-4.5108,-4.4945,-4.5103,-4.5102,-4.5102,-4.5101,-4.5101,0,-4.5032,-4.5032,-4.506,-4.5077,-4.51,-4.5065,-4.5076,-4.5097,-4.5131,-4.5138,-4.5159,-4.5196,-4.5224,-4.5212,-4.5236,-4.5262,-4.5245,-4.5269,-4.5265,-4.5265,-4.5134,-4.5119,-4.5283,-4.5282,-4.5282,-4.5282,-4.5282,-4.5282,-4.5117,-4.5172,-4.5161,-4.5219,-4.5218,-4.5256,-4.5265,-4.5276,-4.5282,-4.5326,-4.5349,-4.5342,-4.5341,-4.5366,-4.5389,-4.5385,-4.5395,-4.5426,-4.5415,-4.5292,-4.5274,-4.5257,-4.5242,-4.5429,-4.5429,-4.5543,-4.5544,-4.5545]},{"header":{"parameterUnit":"m.s-1","parameterCategory":1,"la1":30.2991,"la2":30.254,"lo1":-89.0895,"lo2":-89.0444,"dy":0.0017,"dx":0.0017,"nx":28,"ny":28,"refTime":"2026-03-04T09:00:00:Z","depth":0,"parameterNumber":3,"parameterNumberName":"V-component_of_WINDS"},"data":[0,0,0,0,0,0,0,0,0,0,0,0,0,0,0,0,0,0,0,0,0,0,0,0,0,0,0,0,0,0,0,0,0,0,0,0,0,0,0,0,0,0,0,0,0,0,0,0,0,0,0,0,0,0,0,0,0,0,1.5916,1.5916,0,1.59,1.59,1.59,1.5913,1.5914,1.5914,1.5915,1.5894,1.5893,1.5892,0,0,0,0,0,0,0,0,0,0,0,0,0,1.5955,1.5954,1.5916,1.5916,1.5915,1.59,1.59,1.59,1.5913,1.5914,1.5914,1.5915,1.5894,1.5893,1.5892,0,0,0,0,0,0,0,0,0,0,0,0,0,1.5938,1.5954,1.5916,1.592,1.5921,1.59,1.59,1.59,1.5913,1.5914,1.5915,1.5915,1.5895,1.5893,1.5892,1.5865,0,0,1.5887,1.5886,0,0,0,0,0,0,0,0,1.5939,1.5937,1.592,1.592,1.592,1.591,1.5906,1.5888,1.5913,1.5916,1.5915,1.5916,1.5898,1.5896,1.5891,1.5864,1.5863,1.5887,1.5886,1.5885,1.5884,0,0,0,0,0,0,0,1.594,1.5938,1.591,1.592,1.592,1.5923,1.5921,1.5903,1.5902,1.5915,1.5916,1.5915,1.5898,1.5893,1.5891,1.5862,1.5887,1.5885,1.5884,1.5883,1.5815,1.5814,0,0,0,0,0,0,1.5942,1.5939,1.591,1.5909,1.5932,1.5921,1.592,1.5912,1.5902,1.5902,1.5914,1.5915,1.5895,1.5893,1.589,1.586,1.5885,1.5883,1.5882,1.5816,1.5815,1.5814,0,0,0,0,0,0,1.5942,1.5939,1.5911,1.5924,1.5921,1.592,1.5911,1.5911,1.5906,1.5901,1.5901,1.5909,1.5896,1.5893,1.5872,1.586,1.5883,1.5881,1.5817,1.5816,1.5814,1.5798,0,0,0,0,0,0,1.5943,1.5939,1.5929,1.5924,1.592,1.5893,1.591,1.591,1.5904,1.5905,1.5896,1.5896,1.5896,1.5874,1.587,1.5858,1.588,1.5818,1.5816,1.5815,1.58,1.5797,1.5794,0,0,0,0,0,1.5945,1.5923,1.5928,1.5925,1.5908,1.5892,1.589,1.5893,1.5903,1.5892,1.589,1.5896,1.5862,1.5872,1.5868,1.5854,1.5819,1.5817,1.5815,1.5801,1.5797,1.5794,0,0,0,0,0,0,1.5924,1.5922,1.5928,1.5905,1.5899,1.5895,1.5881,1.5888,1.5878,1.5879,1.5882,1.588,1.5859,1.5854,1.5866,1.5829,1.5842,1.5839,1.5833,1.5829,1.5826,1.5827,1.5878,0,0,0,0,0,1.5917,1.5906,1.5905,1.5884,1.5881,1.5882,1.5875,1.5879,1.5872,1.5869,1.5865,1.5857,1.5845,1.5837,1.5825,1.58,1.5799,1.5789,1.5786,1.5783,1.578,1.5769,1.5765,1.5808,1.5808,1.5808,0,0,1.5902,1.59,1.5892,1.588,1.5876,1.5864,1.588,1.5865,1.5857,1.5866,1.5847,1.5845,1.5836,1.5814,1.5804,1.581,1.5769,1.5781,1.5779,1.5777,1.5767,1.5763,1.5759,1.5806,1.5807,1.5807,0,0,1.5868,1.5865,1.5849,1.5846,1.5841,1.5842,1.5838,1.5834,1.5833,1.5815,1.5823,1.5812,1.5791,1.5786,1.578,1.5749,1.5754,1.5745,1.5729,1.5718,1.5714,1.5711,1.5702,1.5698,1.5743,1.5742,1.5742,0,1.585,1.5833,1.5839,1.5826,1.5821,1.5833,1.5816,1.5812,1.5802,1.5799,1.5806,1.5782,1.5777,1.5755,1.5748,1.5743,1.5739,1.5746,1.5715,1.5712,1.5709,1.57,1.5696,1.5741,1.5742,1.5742,1.5742,0,1.5811,1.58,1.5787,1.5781,1.5775,1.576,1.5764,1.5757,1.5761,1.5762,1.5745,1.574,1.5729,1.5724,1.5727,1.5703,1.5707,1.5715,1.5727,1.5704,1.5695,1.5692,1.574,1.574,1.5741,1.5741,0,0,1.5761,1.5762,1.5757,1.5756,1.5753,1.5744,1.573,1.5722,1.5717,1.571,1.57,1.5683,1.5692,1.5685,1.5688,1.5679,1.5657,1.5687,1.5687,1.5683,1.5632,1.5627,1.5623,1.5661,1.566,1.566,1.5633,0,1.5729,1.5707,1.5714,1.5692,1.5683,1.5695,1.5684,1.568,1.5681,1.5673,1.5674,1.5663,1.5674,1.5671,1.5662,1.5661,1.5647,1.5663,1.5651,1.565,1.5653,1.5618,1.5612,1.5587,1.563,1.5629,1.5629,0,1.5687,1.5683,1.5661,1.5663,1.5659,1.5648,1.5643,1.5635,1.5632,1.5634,1.563,1.5635,1.5623,1.5636,1.5619,1.563,1.5626,1.5625,1.5624,1.5623,1.5638,1.5616,1.5579,1.5575,1.5623,1.5624,1.5624,0,1.5655,1.5643,1.5629,1.5628,1.5629,1.5622,1.5622,1.562,1.5616,1.5611,1.5608,1.5601,1.5597,1.5591,1.5596,1.5605,1.5578,1.5592,1.5579,1.5579,1.5572,1.5573,1.5534,1.5569,1.5569,1.5569,1.5569,0,1.5618,1.5604,1.5615,1.5607,1.5592,1.5601,1.5586,1.5587,1.5586,1.5578,1.5588,1.558,1.5586,1.5578,1.5581,1.5568,1.5565,1.5566,1.5567,1.5566,1.5566,1.5562,1.5564,1.5568,1.5569,1.5569,1.5569,0,1.5578,1.5586,1.5572,1.5576,1.5576,1.5566,1.5569,1.5561,1.5564,1.5554,1.5552,1.5557,1.5549,1.5553,1.5543,1.5546,1.5529,1.5532,1.553,1.5531,1.5519,1.5521,1.5477,1.5473,1.551,1.551,1.551,0,1.5554,1.5545,1.5549,1.5545,1.5546,1.5539,1.5536,1.5545,1.5541,1.5539,1.5532,1.5526,1.5521,1.5508,1.551,1.5504,1.5507,1.5492,1.5506,1.5505,1.5508,1.5509,1.5508,1.5489,1.5489,1.5488,1.5488,0,1.5511,1.5517,1.5512,1.551,1.5507,1.5505,1.5504,1.55,1.5509,1.5504,1.5498,1.5495,1.5488,1.5482,1.5477,1.5476,1.5484,1.5484,1.5481,1.5479,1.5479,1.5481,1.5523,1.5485,1.5485,1.5485,1.5486,1.5486,1.548,1.5473,1.5476,1.5472,1.5473,1.5472,1.5466,1.547,1.5466,1.5462,1.5467,1.546,1.546,1.5456,1.5454,1.5449,1.5454,1.545,1.5448,1.5447,1.5446,1.5481,1.5448,1.5448,1.5448,1.5448,1.5448,0,1.5438,1.5442,1.5438,1.5438,1.5435,1.5445,1.5445,1.5442,1.5436,1.5436,1.5433,1.5427,1.5422,1.5425,1.5421,1.5416,1.5419,1.5414,1.5415,1.5415,1.5441,1.5444,1.5412,1.5412,1.5412,1.5412,1.5412,1.5412,1.5416,1.5406,1.5412,1.5403,1.5406,1.5401,1.54,1.54,1.5401,1.5395,1.5392,1.5395,1.5397,1.5393,1.539,1.5391,1.5389,1.5383,1.5385,1.5409,1.5413,1.5416,1.542,1.5382,1.5382,1.536,1.536,1.536]}]]